Weather History for KCUT - March, 2013

Change the Weather History Date:

Saturday, March 30, 2013

  Actual Average Record
Temperature  
Mean Temperature 38 °F 34 °F  
Max Temperature 49 °F 45 °F 70 °F (1967)
Min Temperature 26 °F 24 °F 2 °F (1944)
Degree Days  
Heating Degree Days 27 30  
Month to date heating degree days 1057 1009  
Since 1 July heating degree days 6599 6844  
Cooling Degree Days 0 0  
Month to date cooling degree days 0 0  
Year to date cooling degree days 0 0  
Moisture  
Dew Point 28 °F    
Average Humidity 59    
Maximum Humidity 84    
Minimum Humidity 34    
Precipitation  
Precipitation 0.03 in 0.05 in 0.29 in (1993)
Month to date precipitation 0.74 0.97  
Year to date precipitation 1.67 1.83  
Sea Level Pressure  
Sea Level Pressure 30.05 in    
Wind  
Wind Speed 7 mph (WNW)    
Max Wind Speed 22 mph    
Max Gust Speed 32 mph    
Visibility 10 miles    
Events Rain    
T = Trace of Precipitation, MM = Missing Value Source: NWS Daily Summary

Daily Weather History Graph

Daily Weather History Graph

Search for Another Location

Airport or City:

Trip Planner

Search our weather history database for the weather conditions in past years. The results will help you decide how hot, cold, wet, or windy it might be!

Date:

Astronomy

Mar. 30, 2013 Rise Set
Actual Time 6:39 AM MDT 7:19 PM MDT
Civil Twilight 6:10 AM MDT 7:48 PM MDT
Nautical Twilight 5:35 AM MDT 8:22 PM MDT
Astronomical Twilight 5:00 AM MDT 8:58 PM MDT
Moon 11:36 PM MDT (3/30) 8:28 AM MDT (3/30)
Length of Visible Light 13h 38m
Length of Day
12h 40m
Waning Gibbous, 86% of the Moon is Illuminated
Mar 30
Waning Gibbous
Apr 2
Last Quarter
Apr 10
New
Apr 18
First Quarter
Apr 25
Full

Hourly Weather History & Observations

Time (MDT) Temp. Windchill Dew Point Humidity Pressure Visibility Wind Dir Wind Speed Gust Speed Precip Events Conditions
12:53 AM 43.0 °F - 28.0 °F 56% 29.99 in 10.0 mi Calm Calm - N/A   Overcast
1:53 AM 39.9 °F 37.8 °F 28.0 °F 63% 30.01 in 10.0 mi North 3.5 mph - N/A   Overcast
2:53 AM 41.0 °F 38.0 °F 26.1 °F 55% 30.00 in 10.0 mi Variable 4.6 mph - N/A   Overcast
3:51 AM 37.4 °F 32.1 °F 32.0 °F 81% 30.10 in 9.0 mi Variable 6.9 mph - 0.01 in Rain Light Rain
3:53 AM 37.0 °F 32.4 °F 32.0 °F 82% 30.04 in 10.0 mi NW 5.8 mph - 0.01 in Rain Light Rain
4:23 AM 35.6 °F 32.8 °F 33.8 °F 93% 30.08 in 10.0 mi SW 3.5 mph - 0.00 in   Overcast
4:53 AM 36.0 °F 32.1 °F 32.0 °F 86% 30.01 in 10.0 mi Variable 4.6 mph - 0.00 in   Overcast
5:53 AM 36.0 °F 32.1 °F 30.9 °F 82% 30.01 in 10.0 mi WNW 4.6 mph - N/A   Scattered Clouds
6:53 AM 35.1 °F 31.0 °F 28.9 °F 78% 30.04 in 10.0 mi NW 4.6 mph - N/A   Scattered Clouds
7:53 AM 36.0 °F 32.1 °F 28.9 °F 76% 30.06 in 10.0 mi WNW 4.6 mph - N/A   Overcast
8:53 AM 39.9 °F 36.7 °F 30.0 °F 68% 30.05 in 10.0 mi NW 4.6 mph - N/A   Overcast
9:53 AM 44.1 °F 38.1 °F 30.0 °F 58% 30.03 in 10.0 mi West 11.5 mph 19.6 mph N/A   Overcast
10:53 AM 46.0 °F 39.6 °F 26.1 °F 46% 30.03 in 10.0 mi West 15.0 mph 20.7 mph N/A   Mostly Cloudy
11:53 AM 48.0 °F - 21.9 °F 36% 30.02 in 10.0 mi West 15.0 mph 19.6 mph N/A   Scattered Clouds
12:53 PM 46.9 °F - 21.9 °F 37% 29.99 in 10.0 mi WNW 15.0 mph 25.3 mph N/A   Overcast
1:53 PM 41.0 °F 38.0 °F 35.1 °F 79% 30.05 in 10.0 mi WSW 4.6 mph - 0.01 in   Mostly Cloudy
2:22 PM 44.6 °F 37.4 °F 28.4 °F 53% 30.05 in 10.0 mi West 16.1 mph 24.2 mph N/A   Scattered Clouds
2:53 PM 46.9 °F - 21.9 °F 37% 30.00 in 10.0 mi WNW 13.8 mph 32.2 mph N/A   Partly Cloudy
3:53 PM 39.0 °F 31.0 °F 28.9 °F 67% 30.09 in 10.0 mi NNW 13.8 mph 28.8 mph N/A   Mostly Cloudy
4:53 PM 42.1 °F 40.2 °F 33.1 °F 70% 30.06 in 10.0 mi Variable 3.5 mph - 0.01 in   Clear
5:53 PM 42.1 °F 37.7 °F 27.0 °F 55% 30.07 in 10.0 mi NW 6.9 mph - N/A   Mostly Cloudy
6:53 PM 39.9 °F 35.1 °F 23.0 °F 51% 30.09 in 10.0 mi NW 6.9 mph - N/A   Clear
7:53 PM 36.0 °F 29.6 °F 26.1 °F 67% 30.11 in 10.0 mi WNW 8.1 mph 16.1 mph N/A   Clear
8:53 PM 36.0 °F 31.1 °F 24.1 °F 62% 30.11 in 10.0 mi NW 5.8 mph - N/A   Clear
9:53 PM 35.1 °F 29.3 °F 25.0 °F 67% 30.11 in 10.0 mi WNW 6.9 mph - N/A   Clear
10:53 PM 34.0 °F 28.8 °F 26.1 °F 73% 30.11 in 10.0 mi WNW 5.8 mph - N/A   Clear
11:53 PM 26.1 °F - 23.0 °F 88% 30.13 in 10.0 mi Calm Calm - N/A   Clear